Wind_Speed
21 20 19 16 14 12 11 8 11 19 23 10 22 20 17 13 15 23 28 28 27 28 29 27 28 30 31 30 30 27 24 26 29 32 33 37 39 39 41 41 38 36 35 39
25 21 15 15 17 18 21 14 11 7 23 24 25 16 23 18 23 24 27 28 27 28 30 26 29 28 30 30 28 26 24 25 29 30 32 36 38 38 40 39 39 39 39 39
22 19 17 18 17 21 23 18 22 10 24 22 23 14 15 26 17 24 31 30 29 29 32 28 28 28 29 29 28 25 24 25 30 30 30 35 38 38 39 39 41 40 39 38
26 23 23 29 22 21 24 21 19 17 21 21 22 21 8 29 16 27 32 31 25 28 31 28 27 28 29 29 27 25 24 27 29 30 30 35 37 36 37 39 41 41 38 36
25 32 18 25 24 26 25 20 16 21 19 19 23 26 28 20 14 28 31 31 28 31 30 28 26 29 29 29 25 26 26 28 28 29 30 34 35 37 37 38 40 39 36 36
34 25 22 33 30 24 20 18 17 9 14 19 26 35 31 24 18 24 25 31 32 32 29 28 28 29 29 29 23 23 24 28 28 28 28 32 34 36 37 38 39 37 35 34
36 30 34 31 21 19 22 19 16 16 14 19 31 25 27 4 21 23 26 32 32 30 27 28 29 31 30 31 28 23 26 27 28 28 27 30 32 34 37 37 37 37 34 34
35 35 29 22 26 24 18 16 12 17 17 22 30 28 25 7 22 21 29 35 33 28 26 27 31 32 29 29 27 25 26 27 27 27 26 28 31 32 34 35 36 36 35 34
29 28 15 23 22 24 19 22 7 17 16 16 24 29 48 21 27 21 32 34 32 28 27 27 30 31 29 28 27 27 28 29 27 27 26 29 31 32 33 34 35 35 36 34
24 21 17 24 21 23 22 12 14 14 18 20 24 29 31 16 16 26 29 33 31 30 28 28 31 31 28 26 28 28 28 28 27 25 27 29 32 32 33 33 34 36 35 35
28 26 12 23 26 23 26 24 18 17 24 15 26 30 35 29 26 28 32 32 29 27 25 27 29 29 28 26 24 27 28 28 28 27 28 30 32 33 34 34 34 35 37 35
28 27 24 20 18 18 19 19 17 13 19 35 25 33 29 26 33 29 30 27 26 25 24 26 27 27 28 29 28 31 30 29 30 30 30 31 32 34 35 36 35 35 36 37
24 30 30 20 21 21 26 22 18 21 31 37 18 28 33 34 34 28 32 25 23 24 23 25 25 26 26 28 29 30 31 30 30 31 32 33 33 35 37 37 36 35 35 36
29 28 31 21 14 14 22 22 23 20 20 17 18 34 30 26 21 30 29 25 23 23 23 23 25 26 27 27 29 31 31 29 29 31 33 34 34 34 35 36 37 35 36 35
31 32 27 28 23 16 20 22 21 21 18 23 21 26 37 37 33 28 27 24 23 23 22 23 24 25 26 28 28 29 30 29 29 30 31 33 35 35 35 35 37 35 34 34
31 32 28 30 20 17 14 13 16 18 14 18 22 27 36 25 25 25 22 22 21 22 22 22 23 24 25 27 28 29 30 28 29 29 30 32 33 35 34 35 36 34 33 33
33 29 26 27 23 18 21 18 20 25 29 33 28 33 26 21 24 22 23 22 20 21 21 22 24 24 26 27 27 28 28 28 28 29 30 31 32 34 35 36 35 33 33 33
30 25 28 20 29 27 23 32 33 23 14 25 25 34 24 20 23 25 23 20 21 21 21 21 23 25 25 27 28 28 27 28 27 28 30 31 32 33 34 36 35 34 33 32
23 29 29 24 34 33 29 30 28 34 36 33 27 33 15 18 20 20 21 19 21 21 21 22 22 23 25 26 28 28 27 27 26 27 29 30 32 33 34 35 35 34 32 32
27 31 32 27 29 24 22 28 23 35 41 36 30 32 17 18 20 19 18 20 21 21 22 22 22 22 24 25 26 27 27 26 27 26 28 30 32 34 34 35 35 34 32 30
30 34 34 31 31 37 36 35 36 40 40 36 25 19 14 16 20 21 20 20 21 21 22 22 22 22 23 24 24 26 26 27 28 30 30 31 33 34 35 35 35 33 32 31
24 33 37 33 34 27 33 32 30 9 8 25 11 14 13 16 18 20 20 21 23 21 22 22 22 22 23 24 24 26 26 27 28 30 32 34 35 35 35 36 36 33 31 31
21 23 38 36 40 34 28 16 15 6 3 6 11 14 13 18 21 21 20 21 26 22 22 21 21 22 23 24 22 25 26 26 28 31 32 33 34 34 35 35 35 34 31 30
17 28 32 36 29 27 8 12 13 9 10 14 16 18 19 21 23 24 24 23 24 22 21 20 20 22 21 23 23 23 23 25 27 31 33 33 33 34 34 35 34 32 31 29
31 27 28 30 28 23 20 16 17 16 15 17 18 19 21 23 27 26 25 23 21 21 20 20 19 21 21 21 23 23 24 26 29 32 33 34 34 34 34 34 33 32 30 29
26 28 26 18 24 23 22 19 16 16 18 19 18 19 21 22 23 23 21 20 20 20 19 19 19 19 19 20 22 23 24 26 30 33 34 34 34 34 34 32 30 28 28 28
Wind_Direction
203 199 195 194 202 198 239 297 310 335 332 27 300 305 330 340 319 322 322 325 333 331 327 331 331 330 327 329 331 328 326 330 337 334 336 340 338 336 335 336 334 329 325 326
203 198 190 203 204 214 226 260 272 270 275 290 291 305 299 344 340 328 325 323 332 332 324 335 325 325 325 328 328 325 328 329 336 333 337 340 339 340 339 338 340 335 330 332
204 203 212 219 219 217 220 220 234 229 286 288 284 298 321 318 337 319 323 325 330 329 324 328 321 322 324 329 325 323 327 332 332 332 337 339 337 342 343 343 341 338 336 337
208 217 226 229 229 241 244 249 244 247 235 267 279 280 295 269 326 322 318 317 323 325 323 324 323 320 326 329 325 323 327 332 330 331 337 338 338 340 344 347 343 343 343 342
208 221 216 230 236 241 233 244 245 257 262 276 272 276 273 276 331 328 320 320 330 325 327 322 321 325 326 329 328 322 328 331 329 330 337 339 340 342 344 347 347 347 345 346
198 214 208 229 217 225 231 244 247 248 250 263 277 269 276 236 349 330 328 331 326 325 325 322 326 328 326 329 330 318 326 329 330 333 338 339 343 345 346 347 349 347 346 346
210 201 221 226 218 235 239 241 245 246 252 286 275 293 314 219 314 333 335 334 325 325 323 321 329 328 330 329 329 329 329 329 330 335 339 342 343 345 346 348 348 348 347 348
218 221 230 230 226 218 226 246 249 237 271 313 309 307 274 143 305 302 315 328 323 323 322 324 329 329 329 326 324 328 327 328 329 335 337 339 341 343 345 347 347 348 349 350
217 226 229 243 237 230 224 227 231 265 289 296 294 297 292 290 273 316 315 318 319 320 325 326 328 325 331 328 324 326 328 328 329 334 332 335 337 339 340 345 346 346 351 351
216 203 214 254 236 220 209 229 212 238 281 275 247 270 284 268 330 316 317 314 319 318 322 324 329 326 331 330 323 327 325 325 324 331 329 331 333 335 336 341 346 347 349 351
209 213 179 229 246 227 207 214 222 242 252 303 304 279 320 303 316 315 311 312 310 309 317 324 329 326 330 331 326 321 321 321 320 323 324 328 332 333 335 337 342 348 350 350
212 217 183 213 257 248 237 207 230 243 245 243 248 289 299 304 302 308 309 310 306 308 316 324 329 327 331 331 332 327 325 322 321 319 325 327 328 332 335 338 340 344 350 352
218 215 198 192 225 235 224 233 214 244 257 252 301 288 296 299 311 302 306 308 303 306 316 324 329 329 332 329 329 325 324 322 323 321 322 326 329 332 334 338 341 343 346 351
219 219 216 196 229 229 262 242 230 231 273 283 271 277 292 278 306 308 302 303 302 304 313 324 328 330 332 331 328 326 326 325 324 325 326 327 330 332 334 337 341 343 346 348
217 220 216 194 220 239 235 244 240 241 269 271 272 279 309 302 308 304 299 297 300 302 312 321 328 329 328 330 328 327 326 326 326 328 329 330 330 331 333 336 341 343 346 348
220 223 220 203 219 241 243 214 208 217 235 258 270 274 266 288 291 297 296 292 296 300 310 318 325 327 325 326 326 326 327 328 326 330 332 332 332 332 334 338 341 344 345 347
228 229 221 213 208 230 243 248 251 257 255 262 269 267 275 291 293 291 294 292 294 300 310 315 322 324 324 324 324 324 326 327 327 332 333 334 333 334 335 339 342 345 346 346
223 219 212 191 223 222 214 231 231 224 240 262 264 266 274 287 289 292 291 293 298 299 309 311 318 320 324 325 324 324 326 328 331 334 336 337 337 337 338 340 342 346 346 346
236 210 211 201 238 232 236 241 228 246 259 270 261 260 272 294 294 292 293 295 296 297 307 308 313 316 320 325 325 324 326 328 331 335 338 339 337 336 339 341 342 345 346 346
227 206 211 214 240 263 235 269 262 267 278 275 251 252 265 291 302 299 289 295 297 298 303 304 308 314 319 324 325 326 327 329 331 336 338 340 339 337 338 341 342 343 344 345
223 208 216 219 237 241 259 270 283 286 275 256 238 247 271 291 302 303 303 294 295 297 298 303 306 312 317 323 325 326 327 330 333 333 337 339 340 338 337 340 341 342 343 343
228 219 221 225 241 249 262 269 285 301 302 224 230 265 279 292 296 304 304 301 298 296 298 304 306 310 316 322 324 323 325 328 331 333 336 338 340 339 338 339 341 341 342 342
199 225 229 233 242 242 232 257 281 304 274 265 260 273 282 289 294 296 297 293 296 295 297 302 306 311 317 321 323 319 325 329 332 332 335 337 338 338 338 339 339 340 341 339
174 213 232 241 244 267 211 260 260 276 275 272 274 279 283 285 291 294 286 285 289 291 296 299 305 309 320 319 319 319 324 328 331 331 335 337 338 339 338 338 339 339 338 339
211 225 243 248 254 267 265 259 270 281 281 279 279 278 282 282 284 290 287 285 287 289 294 298 306 310 318 317 317 322 327 329 332 334 335 337 338 338 337 339 338 339 338 340
174 199 203 205 244 253 269 259 280 285 283 283 280 277 280 286 289 289 285 286 287 290 295 299 306 311 314 314 316 321 326 330 338 333 335 337 335 336 338 338 338 338 339 339
Height
5884 5888 5891 5896 5898 5900 5902 5905 5899 5891 5884 5888 5902 5900 5894 5895 5892 5889 5885 5882 5880 5876 5872 5869 5864 5860 5855 5850 5845 5839 5835 5830 5825 5820 5815 5808 5800 5793 5785 5777 5768 5759 5752 5744
5881 5884 5890 5893 5895 5896 5897 5899 5902 5904 5903 5903 5902 5899 5894 5892 5892 5888 5885 5881 5878 5874 5868 5867 5861 5857 5852 5847 5841 5836 5832 5827 5822 5817 5811 5804 5797 5790 5781 5773 5764 5755 5746 5738
5877 5884 5887 5890 5892 5896 5897 5897 5899 5902 5899 5899 5898 5896 5894 5887 5889 5885 5882 5878 5874 5870 5865 5863 5858 5854 5849 5843 5838 5833 5829 5825 5818 5814 5807 5801 5793 5785 5776 5768 5758 5749 5740 5732
5874 5881 5883 5886 5889 5894 5894 5896 5896 5898 5899 5899 5896 5891 5891 5885 5885 5882 5879 5875 5875 5868 5864 5859 5855 5850 5845 5841 5835 5829 5826 5820 5816 5809 5804 5797 5790 5781 5773 5763 5754 5744 5735 5727
5873 5878 5881 5883 5887 5891 5891 5892 5893 5895 5894 5893 5894 5889 5889 5882 5879 5880 5875 5870 5869 5864 5860 5856 5852 5847 5841 5837 5832 5826 5822 5817 5812 5806 5799 5793 5785 5777 5768 5760 5750 5740 5731 5723
5866 5873 5877 5875 5879 5882 5886 5888 5890 5890 5889 5890 5890 5882 5873 5858 5874 5877 5874 5868 5865 5861 5857 5852 5848 5843 5838 5833 5831 5825 5820 5814 5809 5803 5796 5790 5781 5773 5764 5755 5746 5737 5729 5721
5863 5865 5868 5870 5876 5882 5883 5885 5887 5887 5887 5884 5880 5876 5863 5856 5871 5869 5869 5867 5861 5858 5854 5849 5844 5841 5834 5828 5824 5822 5815 5811 5805 5799 5792 5785 5777 5769 5761 5752 5743 5734 5726 5718
5861 5864 5865 5870 5874 5878 5881 5883 5885 5885 5879 5882 5876 5868 5855 5855 5870 5867 5864 5864 5858 5855 5851 5846 5841 5836 5832 5826 5820 5817 5812 5807 5802 5795 5789 5781 5774 5766 5759 5750 5742 5733 5724 5715
5857 5861 5866 5867 5870 5875 5878 5878 5883 5882 5883 5883 5880 5866 5840 5859 5863 5864 5863 5860 5854 5851 5847 5843 5839 5833 5828 5822 5817 5812 5808 5804 5798 5792 5785 5778 5770 5763 5756 5748 5740 5731 5722 5713
5854 5857 5863 5864 5866 5870 5871 5877 5879 5881 5880 5878 5873 5868 5856 5836 5859 5861 5859 5855 5851 5844 5842 5840 5835 5829 5824 5820 5813 5810 5806 5801 5796 5790 5782 5775 5768 5761 5753 5745 5737 5728 5719 5711
5850 5852 5859 5865 5861 5866 5868 5870 5875 5878 5877 5874 5869 5863 5853 5858 5856 5857 5856 5853 5849 5844 5840 5836 5832 5826 5821 5817 5812 5807 5803 5798 5793 5786 5779 5772 5765 5758 5751 5743 5735 5727 5718 5710
5845 5850 5854 5862 5862 5862 5866 5868 5872 5874 5876 5864 5866 5860 5861 5859 5856 5853 5852 5849 5845 5841 5837 5833 5829 5824 5819 5813 5809 5804 5800 5795 5790 5782 5776 5769 5762 5756 5749 5742 5734 5726 5717 5709
5840 5844 5850 5855 5860 5861 5860 5864 5866 5868 5867 5867 5865 5860 5854 5853 5852 5851 5845 5844 5842 5837 5834 5830 5826 5822 5817 5811 5807 5802 5797 5791 5786 5780 5773 5766 5760 5753 5746 5739 5732 5724 5717 5709
5835 5839 5845 5852 5857 5858 5857 5861 5863 5865 5864 5863 5862 5854 5852 5851 5851 5846 5841 5839 5837 5834 5830 5827 5823 5818 5813 5809 5804 5799 5793 5788 5783 5777 5772 5765 5757 5750 5743 5736 5730 5722 5715 5708
5830 5832 5839 5848 5848 5851 5851 5855 5858 5860 5860 5860 5859 5853 5836 5839 5843 5841 5838 5836 5833 5830 5827 5823 5819 5815 5811 5806 5802 5796 5791 5784 5779 5773 5767 5761 5755 5748 5740 5733 5727 5720 5713 5706
5824 5828 5835 5841 5847 5849 5848 5848 5851 5853 5854 5855 5852 5850 5843 5844 5840 5838 5836 5833 5830 5828 5823 5819 5816 5812 5809 5804 5800 5794 5788 5783 5776 5770 5764 5758 5752 5746 5739 5732 5725 5718 5711 5704
5820 5826 5831 5836 5842 5845 5850 5851 5850 5849 5849 5847 5847 5841 5842 5840 5836 5834 5831 5828 5826 5824 5820 5817 5813 5809 5806 5801 5797 5791 5786 5780 5775 5769 5762 5756 5749 5744 5738 5731 5724 5717 5710 5703
5816 5822 5826 5833 5835 5836 5838 5840 5839 5840 5840 5841 5840 5834 5835 5835 5831 5829 5826 5824 5822 5820 5816 5813 5809 5806 5802 5798 5794 5789 5783 5778 5773 5766 5760 5754 5748 5742 5735 5730 5723 5716 5708 5702
5812 5818 5822 5827 5825 5826 5825 5828 5832 5836 5837 5837 5835 5829 5831 5829 5827 5824 5821 5820 5817 5815 5812 5809 5806 5803 5799 5795 5790 5786 5780 5775 5770 5764 5758 5752 5746 5740 5734 5727 5721 5714 5708 5701
5808 5813 5817 5820 5822 5818 5822 5824 5830 5831 5830 5828 5828 5824 5826 5825 5823 5820 5817 5815 5814 5811 5809 5806 5803 5800 5796 5791 5787 5783 5778 5772 5768 5762 5754 5749 5743 5738 5731 5724 5718 5712 5706 5699
5802 5807 5811 5817 5817 5821 5822 5823 5822 5820 5820 5817 5820 5821 5821 5820 5819 5816 5813 5811 5809 5807 5805 5802 5799 5796 5792 5788 5784 5780 5775 5770 5765 5760 5753 5746 5740 5735 5729 5722 5716 5709 5703 5697
5799 5804 5807 5812 5813 5818 5816 5819 5818 5811 5809 5811 5815 5816 5816 5815 5814 5812 5808 5807 5805 5803 5800 5798 5796 5792 5788 5785 5780 5776 5771 5766 5762 5757 5751 5745 5738 5733 5727 5720 5713 5707 5701 5696
5792 5800 5801 5804 5803 5807 5808 5812 5813 5811 5809 5811 5812 5811 5812 5810 5808 5806 5804 5802 5800 5798 5796 5793 5791 5788 5784 5781 5777 5771 5767 5763 5758 5754 5748 5741 5735 5729 5723 5717 5711 5704 5699 5693
5786 5793 5795 5799 5802 5804 5804 5808 5809 5808 5807 5807 5807 5806 5806 5804 5802 5800 5798 5797 5795 5793 5791 5789 5786 5782 5780 5776 5773 5770 5765 5760 5755 5750 5744 5738 5731 5726 5720 5714 5708 5702 5696 5690
5782 5794 5795 5794 5794 5799 5802 5804 5805 5804 5803 5803 5802 5801 5799 5798 5796 5795 5793 5791 5790 5788 5786 5784 5782 5778 5774 5771 5768 5765 5761 5756 5751 5746 5741 5735 5728 5722 5716 5711 5705 5699 5693 5687
5774 5782 5789 5791 5791 5795 5798 5802 5800 5799 5798 5798 5797 5795 5794 5792 5790 5789 5788 5787 5786 5784 5781 5779 5777 5774 5770 5767 5765 5762 5757 5753 5748 5743 5737 5731 5725 5720 5713 5707 5703 5697 5690 5684